Total_Precipitation_Accumulation
0.00 0.00 0.00 0.00 0.00 0.00 0.00 0.00 0.00 0.00 0.00 0.00 0.00 0.00 0.00 0.00 0.00 0.00 0.00 0.00 0.00 0.00 0.00 0.00 0.00 0.00 0.00 0.00 0.00 0.00 0.00 0.00 0.00 0.00 0.00 0.00 0.00 0.00 0.00 0.00 0.00 0.00 0.00 0.00
0.00 0.00 0.00 0.00 0.00 0.00 0.00 0.00 0.00 0.00 0.00 0.00 0.00 0.00 0.00 0.00 0.00 0.00 0.00 0.00 0.00 0.00 0.00 0.00 0.00 0.00 0.00 0.00 0.00 0.00 0.00 0.00 0.00 0.00 0.00 0.00 0.00 0.00 0.00 0.00 0.00 0.00 0.00 0.00
0.00 0.00 0.00 0.00 0.00 0.00 0.00 0.00 0.00 0.00 0.00 0.00 0.00 0.00 0.00 0.00 0.00 0.00 0.00 0.00 0.00 0.00 0.00 0.00 0.00 0.00 0.00 0.00 0.00 0.00 0.00 0.00 0.00 0.00 0.00 0.00 0.00 0.00 0.00 0.00 0.00 0.00 0.00 0.00
0.00 0.00 0.00 0.00 0.00 0.00 0.00 0.00 0.00 0.00 0.00 0.00 0.00 0.00 0.00 0.00 0.00 0.00 0.00 0.00 0.00 0.00 0.00 0.00 0.00 0.00 0.00 0.00 0.00 0.00 0.00 0.00 0.00 0.00 0.00 0.00 0.00 0.00 0.00 0.00 0.00 0.00 0.00 0.00
0.00 0.00 0.00 0.00 0.00 0.00 0.00 0.00 0.00 0.00 0.00 0.00 0.00 0.00 0.00 0.00 0.00 0.00 0.00 0.00 0.00 0.00 0.00 0.00 0.00 0.00 0.00 0.00 0.00 0.00 0.00 0.00 0.00 0.00 0.00 0.00 0.00 0.00 0.00 0.00 0.00 0.00 0.00 0.00
0.00 0.00 0.00 0.00 0.00 0.00 0.00 0.00 0.00 0.00 0.00 0.00 0.00 0.00 0.00 0.00 0.00 0.00 0.00 0.00 0.00 0.00 0.00 0.00 0.00 0.00 0.00 0.00 0.00 0.00 0.00 0.00 0.00 0.00 0.00 0.00 0.00 0.00 0.00 0.00 0.00 0.00 0.00 0.00
0.00 0.00 0.00 0.00 0.00 0.00 0.00 0.00 0.00 0.00 0.00 0.00 0.00 0.00 0.00 0.00 0.00 0.00 0.00 0.00 0.00 0.00 0.00 0.00 0.00 0.00 0.00 0.00 0.00 0.00 0.00 0.00 0.00 0.00 0.00 0.00 0.00 0.00 0.00 0.00 0.00 0.00 0.00 0.00
0.00 0.00 0.00 0.00 0.00 0.00 0.00 0.00 0.00 0.00 0.00 0.00 0.00 0.00 0.00 0.00 0.00 0.00 0.00 0.00 0.00 0.00 0.00 0.00 0.00 0.00 0.00 0.00 0.00 0.00 0.00 0.00 0.00 0.00 0.00 0.00 0.00 0.00 0.00 0.00 0.00 0.00 0.00 0.00
0.00 0.00 0.00 0.00 0.00 0.00 0.00 0.00 0.00 0.00 0.00 0.00 0.00 0.00 0.00 0.00 0.00 0.00 0.00 0.00 0.00 0.00 0.00 0.00 0.00 0.00 0.00 0.00 0.00 0.00 0.00 0.00 0.00 0.00 0.00 0.00 0.00 0.00 0.00 0.00 0.00 0.00 0.00 0.00
0.00 0.00 0.00 0.00 0.00 0.00 0.00 0.00 0.00 0.00 0.02 0.01 0.00 0.00 0.00 0.00 0.00 0.00 0.00 0.00 0.00 0.00 0.00 0.00 0.00 0.00 0.00 0.00 0.00 0.00 0.00 0.00 0.00 0.00 0.00 0.00 0.00 0.00 0.00 0.00 0.00 0.00 0.00 0.00
0.00 0.00 0.00 0.00 0.00 0.00 0.00 0.00 0.00 0.00 0.02 0.04 0.02 0.00 0.00 0.00 0.00 0.00 0.00 0.00 0.00 0.00 0.00 0.00 0.00 0.00 0.00 0.00 0.00 0.00 0.00 0.00 0.00 0.00 0.00 0.00 0.00 0.00 0.00 0.00 0.00 0.00 0.00 0.00
0.00 0.00 0.00 0.00 0.00 0.00 0.00 0.00 0.00 0.02 0.03 0.08 0.09 0.03 0.00 0.00 0.00 0.00 0.00 0.00 0.00 0.01 0.02 0.02 0.01 0.01 0.01 0.01 0.01 0.02 0.02 0.03 0.03 0.02 0.02 0.02 0.02 0.02 0.01 0.01 0.01 0.01 0.01 0.02
0.02 0.01 0.02 0.00 0.00 0.00 0.00 0.00 0.01 0.10 0.30 0.30 0.19 0.08 0.00 0.06 0.08 0.02 0.01 0.03 0.06 0.08 0.10 0.11 0.10 0.10 0.11 0.12 0.12 0.12 0.12 0.13 0.15 0.16 0.16 0.15 0.15 0.14 0.13 0.12 0.11 0.09 0.08 0.08
0.19 0.23 0.11 0.10 0.02 0.02 0.09 0.12 0.14 0.28 0.56 0.25 0.10 0.01 0.02 0.07 0.09 0.03 0.03 0.09 0.13 0.13 0.13 0.14 0.14 0.16 0.17 0.19 0.20 0.21 0.23 0.24 0.24 0.24 0.24 0.24 0.24 0.24 0.24 0.24 0.25 0.25 0.24 0.24
0.31 0.56 0.20 0.15 0.07 0.01 0.02 0.12 0.13 0.33 0.47 0.69 0.48 0.14 0.19 0.21 0.13 0.11 0.13 0.15 0.18 0.22 0.23 0.24 0.25 0.28 0.31 0.31 0.31 0.31 0.33 0.34 0.36 0.37 0.37 0.39 0.39 0.39 0.40 0.39 0.37 0.33 0.30 0.25
0.17 0.55 0.23 0.24 0.03 0.00 0.07 0.21 0.14 0.13 0.18 0.28 0.32 0.37 0.42 0.32 0.15 0.14 0.18 0.24 0.32 0.35 0.37 0.39 0.41 0.40 0.40 0.40 0.39 0.38 0.38 0.38 0.38 0.38 0.38 0.37 0.35 0.33 0.31 0.29 0.27 0.24 0.22 0.19
0.19 0.27 0.36 0.46 0.02 0.11 0.32 0.17 0.07 0.09 0.11 0.10 0.14 0.20 0.16 0.16 0.18 0.27 0.33 0.38 0.43 0.47 0.49 0.48 0.44 0.41 0.40 0.39 0.38 0.36 0.36 0.34 0.31 0.31 0.30 0.27 0.24 0.21 0.20 0.19 0.17 0.16 0.14 0.12
0.16 0.37 0.64 0.75 0.30 0.62 0.28 0.16 0.18 0.19 0.22 0.23 0.27 0.31 0.38 0.43 0.45 0.45 0.52 0.54 0.59 0.57 0.54 0.51 0.49 0.47 0.46 0.43 0.39 0.36 0.33 0.32 0.29 0.26 0.23 0.20 0.18 0.16 0.13 0.11 0.09 0.07 0.05 0.05
0.12 0.34 0.71 1.07 0.75 0.55 0.45 0.33 0.31 0.36 0.33 0.38 0.43 0.46 0.53 0.61 0.64 0.59 0.59 0.53 0.52 0.52 0.52 0.51 0.47 0.43 0.40 0.37 0.34 0.31 0.28 0.27 0.25 0.22 0.19 0.16 0.12 0.10 0.08 0.07 0.05 0.04 0.04 0.03
0.06 0.13 0.40 0.71 0.83 0.61 0.47 0.28 0.35 0.44 0.40 0.36 0.42 0.52 0.58 0.58 0.59 0.53 0.52 0.43 0.39 0.36 0.34 0.32 0.29 0.28 0.26 0.24 0.20 0.18 0.16 0.14 0.14 0.12 0.09 0.07 0.07 0.06 0.06 0.06 0.05 0.05 0.04 0.03
0.08 0.16 0.43 0.58 0.88 0.95 0.62 0.45 0.49 0.69 0.55 0.37 0.36 0.36 0.33 0.31 0.33 0.33 0.28 0.25 0.23 0.21 0.20 0.18 0.15 0.13 0.11 0.07 0.04 0.03 0.02 0.02 0.01 0.01 0.02 0.02 0.02 0.02 0.02 0.02 0.01 0.01 0.01 0.01
0.28 0.32 0.32 0.39 0.57 0.73 0.45 0.49 0.61 0.66 0.54 0.40 0.30 0.25 0.21 0.21 0.21 0.20 0.20 0.18 0.16 0.13 0.10 0.06 0.03 0.01 0.00 0.00 0.00 0.01 0.01 0.00 0.00 0.00 0.00 0.00 0.00 0.00 0.00 0.00 0.00 0.00 0.00 0.00
0.41 0.50 0.56 0.63 0.69 0.61 0.46 0.42 0.49 0.43 0.37 0.33 0.27 0.24 0.23 0.20 0.17 0.15 0.12 0.08 0.04 0.01 0.00 0.00 0.00 0.00 0.00 0.00 0.00 0.00 0.00 0.00 0.00 0.00 0.00 0.00 0.00 0.00 0.00 0.00 0.00 0.00 0.00 0.00
0.23 0.25 0.37 0.36 0.31 0.30 0.38 0.39 0.35 0.32 0.29 0.26 0.22 0.19 0.15 0.12 0.09 0.05 0.02 0.00 0.00 0.00 0.00 0.00 0.00 0.00 0.00 0.00 0.00 0.00 0.00 0.00 0.00 0.00 0.00 0.00 0.00 0.00 0.00 0.00 0.00 0.00 0.00 0.00
0.31 0.22 0.25 0.29 0.30 0.34 0.34 0.30 0.27 0.22 0.17 0.15 0.12 0.08 0.04 0.02 0.01 0.00 0.00 0.00 0.00 0.00 0.00 0.00 0.00 0.00 0.00 0.00 0.00 0.00 0.00 0.00 0.00 0.00 0.00 0.00 0.00 0.00 0.00 0.00 0.00 0.00 0.00 0.01
0.37 0.38 0.39 0.36 0.34 0.30 0.23 0.22 0.18 0.14 0.11 0.06 0.03 0.00 0.00 0.00 0.00 0.00 0.00 0.00 0.00 0.00 0.00 0.00 0.00 0.00 0.00 0.00 0.00 0.00 0.00 0.00 0.00 0.00 0.00 0.00 0.00 0.00 0.00 0.00 0.00 0.00 0.00 0.02